Weather History for KTRK - May, 2014

Change the Weather History Date:

Wednesday, May 7, 2014

  Actual Average (KRNO) Record (KRNO)
Temperature  
Mean Temperature 39 °F 57 °F  
Max Temperature 57 °F 71 °F 89 °F (1954)
Min Temperature 21 °F 43 °F 20 °F (1950)
Degree Days  
Heating Degree Days 26 9  
Month to date heating degree days 66  
Since 1 July heating degree days 4728  
Cooling Degree Days 0 0  
Month to date cooling degree days 0  
Year to date cooling degree days 1  
Moisture  
Dew Point 28 °F    
Average Humidity 77    
Maximum Humidity 100    
Minimum Humidity 33    
Precipitation  
Precipitation 0.00 in 0.01 in 0.60 in (2013)
Month to date precipitation 0.11  
Year to date precipitation 3.39  
Snow  
Snow 0.00 in 0.00 in 1.00 in (1977)
Month to date snowfall 0.1  
Since 1 July snowfall 21.6  
Snow Depth -    
Sea Level Pressure  
Sea Level Pressure 29.96 in    
Wind  
Wind Speed 3 mph (WSW)    
Max Wind Speed 16 mph    
Max Gust Speed 25 mph    
Visibility 9 miles    
Events Fog    
T = Trace of Precipitation, MM = Missing Value Source: NWS Daily Summary

Daily Weather History Graph

Daily Weather History Graph

Search for Another Location

Airport or City:

Trip Planner

Search our weather history database for the weather conditions in past years. The results will help you decide how hot, cold, wet, or windy it might be!

Date:

Astronomy

May. 07, 2014 Rise Set
Actual Time 5:54 AM PDT 7:59 PM PDT
Civil Twilight 5:25 AM PDT 8:29 PM PDT
Nautical Twilight 4:49 AM PDT 9:05 PM PDT
Astronomical Twilight 4:10 AM PDT 9:45 PM PDT
Moon 1:11 PM PDT (5/7) 1:54 AM PDT (5/7)
Length of Visible Light 15h 04m
Length of Day
14h 05m
First Quarter, 56% of the Moon is Illuminated
May 7
First Quarter
May 14
Full
May 21
Last Quarter
May 28
New
Jun 5
First Quarter

Hourly Weather History & Observations

Time (PDT) Temp. Windchill Dew Point Humidity Pressure Visibility Wind Dir Wind Speed Gust Speed Precip Events Conditions
12:15 AM 28.4 °F - 26.6 °F 93% 29.94 in 10.0 mi Calm Calm - N/A   Clear
12:35 AM 30.2 °F - 28.4 °F 93% 29.94 in 10.0 mi Calm Calm - N/A   Clear
12:55 AM 30.2 °F - 26.6 °F 86% 29.94 in 10.0 mi Calm Calm - N/A   Clear
1:15 AM 30.2 °F - 26.6 °F 86% 29.94 in 10.0 mi Calm Calm - N/A   Clear
1:35 AM 28.4 °F - 26.6 °F 93% 29.93 in 10.0 mi Calm Calm - N/A   Clear
1:55 AM 26.6 °F - 24.8 °F 93% 29.92 in 10.0 mi Calm Calm - N/A   Clear
2:15 AM 26.6 °F - 23.0 °F 86% 29.92 in 10.0 mi Calm Calm - N/A   Clear
2:35 AM 24.8 °F - 24.8 °F 100% 29.92 in 10.0 mi Calm Calm - N/A   Clear
2:55 AM 26.6 °F - 23.0 °F 86% 29.92 in 10.0 mi Calm Calm - N/A   Clear
3:15 AM 26.6 °F - 26.6 °F 100% 29.92 in 10.0 mi Calm Calm - N/A   Clear
3:35 AM 24.8 °F - 23.0 °F 93% 29.92 in 10.0 mi Calm Calm - N/A   Clear
3:55 AM 26.6 °F - 26.6 °F 100% 29.92 in 10.0 mi Calm Calm - N/A   Clear
4:15 AM 24.8 °F - 23.0 °F 93% 29.92 in 10.0 mi Calm Calm - N/A   Clear
4:35 AM 26.6 °F - 26.6 °F 100% 29.92 in 10.0 mi Calm Calm - N/A   Clear
4:55 AM 23.0 °F - 23.0 °F 100% 29.92 in 2.0 mi Calm Calm - N/A   Clear
5:15 AM 23.0 °F - 23.0 °F 100% 29.92 in 3.0 mi Calm Calm - N/A   Clear
5:35 AM 24.8 °F - 21.2 °F 86% 29.92 in 10.0 mi Calm Calm - N/A   Clear
5:55 AM 21.2 °F - 21.2 °F 100% 29.92 in 0.8 mi Calm Calm - N/A   Mist
6:15 AM 24.8 °F - 24.8 °F 100% 29.93 in 0.5 mi Calm Calm - N/A Fog Light Freezing Fog
6:35 AM 24.8 °F - 24.8 °F 100% 29.94 in 1.0 mi Calm Calm - N/A   Mostly Cloudy
6:45 AM 24.8 °F - 23.0 °F 93% 29.94 in 10.0 mi Calm Calm - N/A Fog Patches of Fog
7:55 AM 30.2 °F - 28.4 °F 93% 29.94 in 10.0 mi Calm Calm - N/A   Partly Cloudy
11:55 AM 53.6 °F - 24.8 °F 33% 29.93 in 10.0 mi West 12.7 mph 19.6 mph N/A   Mostly Cloudy
12:55 PM 55.4 °F - 26.6 °F 33% 29.93 in 10.0 mi West 15.0 mph 25.3 mph N/A   Mostly Cloudy
1:55 PM 53.6 °F - 28.4 °F 38% 29.94 in 10.0 mi West 15.0 mph 24.2 mph N/A   Mostly Cloudy
2:55 PM 53.6 °F - 26.6 °F 35% 29.94 in 10.0 mi West 15.0 mph 23.0 mph N/A   Mostly Cloudy
3:55 PM 57.2 °F - 30.2 °F 36% 29.94 in 10.0 mi West 13.8 mph 20.7 mph N/A   Mostly Cloudy
4:55 PM 53.6 °F - 32.0 °F 44% 29.95 in 10.0 mi WSW 15.0 mph 23.0 mph N/A   Mostly Cloudy
5:55 PM 53.6 °F - 33.8 °F 47% 29.96 in 10.0 mi WSW 16.1 mph - N/A   Mostly Cloudy
6:15 PM 51.8 °F - 32.0 °F 47% 29.96 in 10.0 mi West 15.0 mph - N/A   Scattered Clouds
6:35 PM 50.0 °F - 32.0 °F 50% 29.97 in 10.0 mi West 12.7 mph 18.4 mph N/A   Scattered Clouds
6:55 PM 50.0 °F - 33.8 °F 54% 29.97 in 10.0 mi WSW 9.2 mph 20.7 mph N/A   Clear
7:15 PM 46.4 °F 40.7 °F 32.0 °F 57% 29.98 in 10.0 mi West 12.7 mph 18.4 mph N/A   Clear
7:35 PM 46.4 °F 41.9 °F 32.0 °F 57% 29.99 in 10.0 mi West 9.2 mph - N/A   Clear
7:55 PM 44.6 °F 42.2 °F 32.0 °F 61% 30.00 in 10.0 mi West 4.6 mph - N/A   Clear
8:15 PM 42.8 °F 39.3 °F 32.0 °F 66% 30.00 in 10.0 mi WSW 5.8 mph - N/A   Clear
8:35 PM 42.8 °F 38.0 °F 32.0 °F 66% 30.01 in 10.0 mi West 8.1 mph - N/A   Clear
8:55 PM 41.0 °F 37.1 °F 32.0 °F 70% 30.01 in 10.0 mi West 5.8 mph - N/A   Clear
9:15 PM 37.4 °F 34.9 °F 32.0 °F 81% 30.02 in 10.0 mi SSW 3.5 mph - N/A   Scattered Clouds
9:35 PM 37.4 °F - 32.0 °F 81% 30.03 in 10.0 mi Calm Calm - N/A   Scattered Clouds
9:55 PM 37.4 °F - 32.0 °F 81% 30.04 in 10.0 mi Calm Calm - N/A   Mostly Cloudy
10:15 PM 37.4 °F 33.8 °F 32.0 °F 81% 30.04 in 10.0 mi SE 4.6 mph - N/A   Overcast
10:35 PM 35.6 °F 31.7 °F 32.0 °F 87% 30.04 in 10.0 mi South 4.6 mph - N/A   Mostly Cloudy
10:55 PM 35.6 °F 32.8 °F 32.0 °F 87% 30.04 in 10.0 mi SSE 3.5 mph - N/A   Scattered Clouds
11:15 PM 35.6 °F 32.8 °F 32.0 °F 87% 30.04 in 10.0 mi South 3.5 mph - N/A   Clear
11:35 PM 35.6 °F - 32.0 °F 87% 30.04 in 10.0 mi Calm Calm - N/A   Clear
11:55 PM 33.8 °F 30.8 °F 32.0 °F 93% 30.04 in 10.0 mi SSE 3.5 mph - N/A   Clear